TimeAKST,TemperatureF,Dew PointF,Humidity,Sea Level PressureIn,VisibilityMPH,Wind Direction,Wind SpeedMPH,Gust SpeedMPH,PrecipitationIn,Events,Conditions,WindDirDegrees,DateUTC
12:53 AM,24.1,12.0,60,29.41,10.0,NNE,16.1,25.3,N/A,,Mostly Cloudy,20,2012-11-23 09:53:00
1:53 AM,25.0,10.0,53,29.41,10.0,North,13.8,24.2,N/A,,Overcast,10,2012-11-23 10:53:00
3:53 AM,26.1,10.9,53,29.44,10.0,NNE,15.0,21.9,N/A,,Overcast,20,2012-11-23 12:53:00
4:53 AM,26.1,10.9,53,29.45,10.0,North,16.1,21.9,N/A,,Overcast,10,2012-11-23 13:53:00
5:53 AM,27.0,12.0,53,29.46,10.0,North,10.4,26.5,N/A,,Overcast,10,2012-11-23 14:53:00
6:53 AM,27.0,12.9,56,29.47,10.0,North,12.7,29.9,N/A,,Overcast,10,2012-11-23 15:53:00
7:53 AM,27.0,12.9,56,29.49,10.0,North,13.8,25.3,N/A,,Overcast,10,2012-11-23 16:53:00
8:53 AM,26.1,12.0,55,29.52,10.0,North,19.6,29.9,N/A,,Mostly Cloudy,10,2012-11-23 17:53:00
9:53 AM,26.1,12.9,58,29.54,10.0,North,19.6,32.2,N/A,,Mostly Cloudy,10,2012-11-23 18:53:00
10:53 AM,25.0,12.9,60,29.56,10.0,NNE,21.9,32.2,N/A,,Clear,20,2012-11-23 19:53:00
11:53 AM,26.1,12.9,58,29.56,10.0,North,24.2,36.8,N/A,,Clear,10,2012-11-23 20:53:00
12:53 PM,28.0,12.9,53,29.57,10.0,NNE,18.4,29.9,N/A,,Clear,20,2012-11-23 21:53:00
1:53 PM,28.0,14.0,56,29.57,10.0,NNE,21.9,29.9,N/A,,Clear,20,2012-11-23 22:53:00
3:53 PM,28.0,15.1,58,29.58,10.0,NNE,19.6,35.7,N/A,,Clear,20,2012-11-24 00:53:00
4:53 PM,28.0,15.1,58,29.60,10.0,NNE,25.3,38.0,N/A,,Clear,20,2012-11-24 01:53:00
5:53 PM,27.0,14.0,58,29.60,10.0,North,25.3,33.4,N/A,,Clear,10,2012-11-24 02:53:00
6:53 PM,27.0,14.0,58,29.61,10.0,NNE,25.3,35.7,N/A,,Clear,20,2012-11-24 03:53:00
7:53 PM,26.1,14.0,60,29.62,10.0,NNE,23.0,33.4,N/A,,Clear,20,2012-11-24 04:53:00
8:53 PM,27.0,14.0,58,29.63,10.0,North,21.9,32.2,N/A,,Clear,10,2012-11-24 05:53:00
9:53 PM,27.0,12.9,56,29.63,10.0,NNE,21.9,35.7,N/A,,Clear,20,2012-11-24 06:53:00
10:53 PM,27.0,12.0,53,29.65,10.0,NNE,20.7,34.5,N/A,,Clear,20,2012-11-24 07:53:00
11:53 PM,27.0,12.9,56,29.66,10.0,North,18.4,31.1,N/A,,Clear,360,2012-11-24 08:53:00